Location: Radomski Observatory
(40.2854°N, 79.5145°W)
Time: 06:04:42
(UTC-04:00)

Cosmos 1072 Rocket - Visible Passes

Search period start: 29 April 2016 00:00
Search period end: 09 May 2016 00:00
Orbit: 948 x 1010 km, 82.9° (Epoch: 27 April)

Date Brightness Start Highest point End Pass type
(mag) Time Alt. Az. Time Alt. Az. Time Alt. Az.
29 Apr 5.5 01:16:39 10° NNW 01:20:47 38° NW 01:20:47 38° NW visible
29 Apr 5.2 23:57:35 10° N 00:02:21 42° NE 00:02:21 42° NE visible
30 Apr 6.1 01:43:43 10° NNW 01:47:06 23° WNW 01:47:06 23° WNW visible
30 Apr 6.5 22:41:24 10° NE 22:43:32 12° ENE 22:43:56 12° ENE visible
01 May 4.8 00:23:46 10° N 00:28:41 60° N 00:28:41 60° N visible
01 May 6.7 02:11:58 10° NW 02:13:25 12° WNW 02:13:25 12° WNW visible
01 May 5.9 23:05:44 10° NNE 23:10:16 23° ENE 23:10:16 23° ENE visible
02 May 5.2 00:50:18 10° NNW 00:55:01 45° NW 00:55:01 45° NW visible
02 May 5.2 23:31:23 10° N 23:36:37 40° ENE 23:36:37 40° ENE visible
03 May 5.9 01:17:16 10° NNW 01:21:22 27° WNW 01:21:22 27° WNW visible
03 May 6.5 22:16:06 10° NE 22:17:08 10° ENE 22:18:11 10° ENE visible
03 May 4.6 23:57:29 10° N 00:02:59 69° NNE 00:02:59 69° NNE visible
04 May 6.6 01:45:09 10° NW 01:47:43 14° WNW 01:47:43 14° WNW visible
04 May 5.9 22:39:38 10° NNE 22:44:05 20° ENE 22:44:36 20° ENE visible
05 May 4.9 00:23:57 10° NNW 00:29:21 55° WNW 00:29:21 55° WNW visible
05 May 5.2 23:05:10 10° N 23:10:48 37° ENE 23:10:59 37° E visible
06 May 5.7 00:50:50 10° NNW 00:55:44 31° W 00:55:44 31° W visible
06 May 4.4 23:31:12 10° N 23:37:20 69° E 23:37:23 69° E visible
07 May 6.4 01:18:28 10° NW 01:22:04 16° W 01:22:07 16° W visible
07 May 6.0 22:13:34 10° NNE 22:17:44 18° ENE 22:19:03 17° E visible
07 May 4.6 23:57:36 10° NNW 00:03:41 65° W 00:03:47 65° W visible
08 May 5.3 22:38:57 10° N 22:44:30 34° ENE 22:45:28 32° E visible
